Location: Fort Wayne
(41.1310°N, 85.1290°W)
Time: 21:46:29
(UTC-04:00)

Amateur Radio Satellites - All Passes

Search period start: 24 June 2016 21:16
Search period end: 25 June 2016 21:16
Location: Fort Wayne, 41.1310°N, 85.1290°W

Satellite Date Start Highest point End Downlink Frequencies (MHz)
Time Altitude Azimuth
ZACube-1 24 Jun 21:22:24 21:25:46 24° 68° (ENE) 21:29:11 437.345
DELFI C3 24 Jun 21:23:45 21:25:17 12° 64° (ENE) 21:26:50 145.870
M-CUBED/EXP-1 PRIME 24 Jun 21:25:40 21:28:58 84° 71° (ENE) 21:32:15 437.505
PRISM 24 Jun 21:25:55 21:28:59 20° 94° (E) 21:32:02 437.425
UWE-3 24 Jun 21:32:33 21:36:31 46° 73° (ENE) 21:40:36 435.000/436.395/437.385
Cosmos 2499 24 Jun 21:32:38 21:40:22 45° 287° (WNW) 21:48:39 435.465 / 435.565
DANDE 24 Jun 21:38:41 21:43:17 28° 274° (W) 21:46:54 436.750
Oscar 11 24 Jun 21:40:16 21:44:20 42° 72° (ENE) 21:48:27 145.826/435.025
FUNcube-1 24 Jun 21:41:56 21:45:45 36° 71° (ENE) 21:49:39 145.935
CINEMA 3 24 Jun 21:46:08 21:49:30 23° 265° (W) 21:52:51 145.822/145.860
AAUSAT CUBESAT 2 24 Jun 22:07:27 22:11:20 36° 263° (W) 22:15:15 437.432
CUBEBUG 2 24 Jun 22:12:18 22:16:11 39° 262° (W) 22:20:10 437.445
CANX-2 24 Jun 22:21:46 22:22:27 10° 271° (W) 22:23:08 2200.000
STRAND 1 24 Jun 22:24:18 22:27:55 20° 297° (WNW) 22:31:32 437.568
AUBIESAT-1 24 Jun 22:25:41 22:28:06 19° 259° (W) 22:30:31 437.475
GONETS M04 24 Jun 22:31:28 22:35:53 15° 302° (WNW) 22:40:19
COMPASS 1 24 Jun 22:39:03 22:41:19 14° 269° (W) 22:43:35 437.405
HO-68 24 Jun 22:54:17 22:57:23 13° 272° (W) 23:00:30 435.675
DELFI C3 24 Jun 22:55:40 22:59:38 58° 260° (W) 23:03:38 145.870
ZACube-1 24 Jun 22:58:22 23:01:56 28° 265° (W) 23:05:36 437.345
PRISM 24 Jun 23:00:43 23:04:20 31° 290° (WNW) 23:07:57 437.425
AO-85 24 Jun 23:03:51 23:08:57 42° 116° (ESE) 23:13:56 145.980
RS-15 24 Jun 23:07:59 23:20:17 75° 243° (WSW) 23:32:26 29.354- 29.394
ANTELSAT 24 Jun 23:09:52 23:13:24 21° 94° (E) 23:16:58 437.575/2403.000
UWE-3 24 Jun 23:11:06 23:13:17 14° 269° (W) 23:15:30 435.000/436.395/437.385
HUMSAT D 24 Jun 23:13:00 23:17:08 84° 259° (W) 23:21:21 437.325/437.525
VELOX 1 24 Jun 23:14:15 23:15:59 12° 62° (ENE) 23:17:43 145.980
CUBEBUG 1 24 Jun 23:17:16 23:19:28 14° 63° (ENE) 23:21:39 437.445
Oscar 11 24 Jun 23:17:50 23:20:40 17° 268° (W) 23:23:30 145.826/435.025
FUNcube-1 24 Jun 23:19:17 23:22:09 18° 268° (W) 23:25:04 145.935
ESTCUBE 1 24 Jun 23:29:59 23:33:49 28° 68° (ENE) 23:37:41 437.505/2401.250
AISAT 24 Jun 23:52:03 23:55:56 31° 69° (ENE) 23:59:48 437.250
QB50P2 24 Jun 23:56:13 23:56:33 10° 90° (E) 23:56:52 145.880/145.840
POLYITAN 1 24 Jun 23:58:26 23:59:11 10° 90° (E) 23:59:56 437.675
TIGRISAT 25 Jun 00:02:01 00:06:38 72° 102° (ESE) 00:11:17 435.000
DUCHIFAT 1 25 Jun 00:04:05 00:04:54 10° 90° (E) 00:05:43 145.980
UNISAT 6 25 Jun 00:05:38 00:10:17 83° 103° (ESE) 00:14:58 437.425
UKube-1 25 Jun 00:15:50 00:19:42 33° 69° (ENE) 00:23:35 .
SPROUT 25 Jun 00:26:01 00:29:38 28° 69° (ENE) 00:33:16 437.525
DX 1 25 Jun 00:27:05 00:31:20 56° 73° (ENE) 00:35:36 434.975-435.025
YUBILEINY 25 Jun 00:42:14 00:50:37 45° 74° (ENE) 00:58:58 435.215
50 SAT 25 Jun 00:43:40 00:47:20 62° 259° (W) 00:51:02 437.505
Cosmos 2504 25 Jun 00:44:02 00:48:48 15° 58° (ENE) 00:53:29 435.465 / 435.565
AO-85 25 Jun 00:44:45 00:49:34 32° 312° (NW) 00:54:14 145.980
ANTELSAT 25 Jun 00:45:56 00:50:12 38° 289° (WNW) 00:54:32 437.575/2403.000
VELOX 1 25 Jun 00:47:28 00:51:52 69° 258° (WSW) 00:56:17 145.980
CUBEBUG 1 25 Jun 00:50:58 00:55:15 58° 259° (W) 00:59:35 437.445
ESTCUBE 1 25 Jun 01:06:39 01:10:33 28° 264° (W) 01:14:29 437.505/2401.250
NANOSAT C BR1 25 Jun 01:14:03 01:18:18 74° 103° (ESE) 01:22:32 145.865
QB50P1 25 Jun 01:14:31 01:18:47 79° 102° (ESE) 01:23:02 145.935-145.965
BUGSAT 1 25 Jun 01:15:35 01:19:12 30° 97° (E) 01:22:52 437.445
POPSAT HIP 1 25 Jun 01:17:18 01:21:35 84° 105° (ESE) 01:25:50 437.405
RS-15 25 Jun 01:23:33 01:30:33 18° 264° (W) 01:37:33 29.354- 29.394
QB50P2 25 Jun 01:28:33 01:32:47 68° 286° (WNW) 01:37:01 145.880/145.840
AISAT 25 Jun 01:28:50 01:32:24 24° 265° (W) 01:35:59 437.250
POLYITAN 1 25 Jun 01:31:10 01:35:24 66° 285° (WNW) 01:39:38 437.675
DUCHIFAT 1 25 Jun 01:36:49 01:41:00 65° 285° (WNW) 01:45:12 145.980
TIGRISAT 25 Jun 01:40:42 01:42:44 13° 298° (WNW) 01:44:46 435.000
UNISAT 6 25 Jun 01:45:00 01:46:20 11° 299° (WNW) 01:47:40 437.425
Cosmos 2491 25 Jun 01:49:39 01:58:11 60° 91° (E) 02:06:43 435.465 / 435.565
UKube-1 25 Jun 01:52:31 01:55:48 21° 265° (W) 01:59:06 .
TISAT 1 25 Jun 02:01:25 02:05:35 85° 72° (ENE) 02:09:46 437.305
SPROUT 25 Jun 02:02:05 02:05:33 24° 265° (W) 02:09:03 437.525
SWISSCUBE 25 Jun 02:03:59 02:07:33 21° 65° (ENE) 02:11:07 437.505
SO-50 25 Jun 02:05:32 02:09:56 38° 50° (NE) 02:14:11 436.795
DX 1 25 Jun 02:05:53 02:07:52 13° 269° (W) 02:09:50 434.975-435.025
JAS-2 25 Jun 02:08:39 02:14:21 53° 99° (E) 02:19:31 435.910
Oscar 19 25 Jun 02:14:54 02:18:53 22° 94° (E) 02:22:50 437.125/150
ITUPSAT 1 25 Jun 02:27:13 02:31:24 31° 68° (ENE) 02:35:38 437.325
BEESAT 25 Jun 02:28:57 02:33:12 33° 68° (ENE) 02:37:27 436.000
Cosmos 2504 25 Jun 02:35:01 02:43:57 72° 80° (E) 02:52:34 435.465 / 435.565
YUBILEINY 25 Jun 02:39:17 02:47:16 40° 274° (W) 02:55:16 435.215
BUGSAT 1 25 Jun 02:51:20 02:54:25 21° 293° (WNW) 02:57:31 437.445
NANOSAT C BR1 25 Jun 02:52:36 02:53:25 10° 298° (WNW) 02:54:14 145.865
PCSat 25 Jun 03:31:15 03:36:16 40° 111° (ESE) 03:41:18 145.827
Gurwin Techsat 1B 25 Jun 03:36:45 03:42:01 58° 101° (E) 03:47:15 435.225
SWISSCUBE 25 Jun 03:40:30 03:45:02 43° 261° (W) 03:49:37 437.505
MOZHAYETS 4 25 Jun 03:45:52 03:49:20 21° 66° (ENE) 03:52:49
SO-50 25 Jun 03:46:26 03:50:11 25° 248° (WSW) 03:53:51 436.795
Cosmos 2491 25 Jun 03:48:02 03:55:30 31° 291° (WNW) 04:03:01 435.465 / 435.565
Oscar 19 25 Jun 03:53:32 03:58:22 43° 290° (WNW) 04:03:10 437.125/150
JAS-2 25 Jun 03:54:41 03:58:55 21° 300° (WNW) 04:02:52 435.910
ITUPSAT 1 25 Jun 04:05:06 04:09:12 28° 264° (W) 04:13:21 437.325
ITAMSAT 1 25 Jun 04:06:46 04:11:41 39° 98° (E) 04:16:33 435.822/435.867
BEESAT 25 Jun 04:06:59 04:10:59 26° 265° (W) 04:15:00 436.000
O/OREOS (USA 219) 25 Jun 04:16:21 04:20:43 52° 108° (ESE) 04:25:05 437.305
KKS-1 25 Jun 04:24:35 04:28:57 61° 74° (ENE) 04:33:19 437.445
AIST 1 25 Jun 04:29:31 04:31:16 12° 69° (ENE) 04:33:00
Cosmos 2504 25 Jun 04:29:41 04:36:27 25° 280° (W) 04:43:04 435.465 / 435.565
GONETS M04 25 Jun 04:47:04 04:48:28 10° 54° (NE) 04:49:52
BEESAT 3 25 Jun 04:48:48 04:52:43 79° 303° (WNW) 04:56:40 437.485
AO-7 25 Jun 04:52:54 05:00:47 43° 100° (E) 05:08:35 29.400- 29.500
CUBESAT XI-V 25 Jun 05:02:52 05:05:50 17° 64° (ENE) 05:08:48 437.345
STARS 25 Jun 05:07:58 05:12:19 89° 257° (WSW) 05:16:42 437.465
PCSat 25 Jun 05:14:56 05:19:44 31° 310° (NW) 05:24:33 145.827
Gurwin Techsat 1B 25 Jun 05:17:50 05:21:29 19° 298° (WNW) 05:25:09 435.225
BEESAT 2 25 Jun 05:18:29 05:22:24 69° 303° (WNW) 05:26:24 435.950
MOZHAYETS 4 25 Jun 05:21:55 05:26:14 39° 262° (W) 05:30:36
Cosmos 2499 25 Jun 05:32:37 05:37:19 15° 58° (ENE) 05:41:55 435.465 / 435.565
HORYU 2 25 Jun 05:41:55 05:45:15 20° 94° (E) 05:48:34 437.375
ITAMSAT 1 25 Jun 05:46:38 05:50:56 26° 295° (WNW) 05:55:13 435.822/435.867
O/OREOS (USA 219) 25 Jun 05:57:30 06:00:25 17° 305° (NW) 06:03:22 437.305
KKS-1 25 Jun 06:04:07 06:05:53 12° 269° (W) 06:07:40 437.445
AIST 1 25 Jun 06:05:05 06:09:15 55° 266° (W) 06:13:23
STRAND 1 25 Jun 06:26:10 06:26:36 10° 57° (ENE) 06:27:03 437.568
BEESAT 3 25 Jun 06:30:17 06:31:04 10° 322° (NW) 06:31:53 437.485
CUBESAT XI-V 25 Jun 06:38:11 06:42:46 53° 260° (W) 06:47:24 437.345
GONETS M04 25 Jun 06:38:58 06:47:32 57° 77° (ENE) 06:56:05
NOAA 18 25 Jun 06:44:50 06:48:06 16° 91° (E) 06:51:21 137.9125
AO-7 25 Jun 06:45:43 06:53:30 45° 298° (WNW) 07:01:17 29.400- 29.500
NOAA 15 25 Jun 06:59:24 07:03:48 27° 95° (E) 07:08:10 137.62
AIST 2 25 Jun 07:04:30 07:08:36 86° 124° (SE) 07:12:46 435.215
HORYU 2 25 Jun 07:17:46 07:21:55 38° 290° (WNW) 07:26:04 437.375
Cubesat XI-IV 25 Jun 07:21:48 07:26:35 31° 96° (E) 07:31:19 437.490
Cosmos 2499 25 Jun 07:23:22 07:32:15 72° 80° (E) 07:40:37 435.465 / 435.565
LilacSat-2 25 Jun 07:23:38 07:27:00 28° 96° (E) 07:30:22 437.200
CUSAT 1 25 Jun 07:34:04 07:39:27 21° 86° (E) 07:44:25 437.405
AO-85 25 Jun 07:36:21 07:40:30 32° 48° (NE) 07:44:18 145.980
BRITE-PL 25 Jun 07:38:51 07:42:59 60° 100° (E) 07:47:05 437.365/2234.400
CUTE-I 25 Jun 07:57:05 08:02:27 67° 102° (ESE) 08:07:47 437.470
STRAND 1 25 Jun 07:59:45 08:04:52 77° 74° (ENE) 08:10:03 437.568
DOVE 4 25 Jun 08:15:15 08:19:00 30° 97° (E) 08:22:54 437.250
PRISM 25 Jun 08:15:54 08:18:28 16° 65° (ENE) 08:21:01 437.425
NOAA 18 25 Jun 08:23:44 08:29:15 69° 287° (WNW) 08:34:45 137.9125
CANX-2 25 Jun 08:29:12 08:30:45 12° 90° (E) 08:32:18 2200.000
HO-68 25 Jun 08:30:39 08:35:37 20° 91° (E) 08:40:32 435.675
GOMX 1 25 Jun 08:32:38 08:36:48 77° 283° (WNW) 08:41:05 467.674
GONETS M04 25 Jun 08:36:34 08:43:49 31° 277° (W) 08:51:06
NOAA 15 25 Jun 08:38:49 08:43:38 38° 292° (WNW) 08:48:26 137.62
AO-7 25 Jun 08:43:32 08:44:07 10° 320° (NW) 08:44:42 29.400- 29.500
AIST 2 25 Jun 08:45:45 08:47:41 13° 320° (NW) 08:49:37 435.215
CUTE 1.7 + AOD 2 25 Jun 08:48:51 08:51:43 17° 92° (E) 08:54:35 437.475
LilacSat-2 25 Jun 08:58:14 09:01:09 21° 292° (WNW) 09:04:03 437.200
DANDE 25 Jun 08:58:59 09:06:49 47° 91° (E) 09:14:27 436.750
SEEDS 25 Jun 09:00:10 09:02:54 16° 92° (E) 09:05:35 437.485
Cubesat XI-IV 25 Jun 09:01:48 09:06:37 34° 293° (WNW) 09:11:24 437.490
CUSAT 1 25 Jun 09:12:58 09:20:59 81° 280° (W) 09:28:00 437.405
PHONESAT 2.4 25 Jun 09:13:15 09:15:45 23° 155° (SSE) 09:18:16 2401.200-2431.200
AO-85 25 Jun 09:17:05 09:20:49 27° 248° (WSW) 09:24:17 145.980
Cosmos 2499 25 Jun 09:17:49 09:24:25 25° 280° (W) 09:30:49 435.465 / 435.565
BRITE-PL 25 Jun 09:19:37 09:20:58 11° 298° (WNW) 09:22:19 437.365/2234.400
UWE-3 25 Jun 09:24:38 09:25:29 10° 89° (E) 09:26:21 435.000/436.395/437.385
CUTE-I 25 Jun 09:38:32 09:41:56 17° 299° (WNW) 09:45:20 437.470
CINEMA 3 25 Jun 09:38:59 09:43:28 73° 102° (ESE) 09:48:08 145.822/145.860
STRAND 1 25 Jun 09:42:33 09:44:37 12° 271° (W) 09:46:41 437.568
PRISM 25 Jun 09:49:25 09:53:24 44° 260° (W) 09:57:25 437.425
AAUSAT CUBESAT 2 25 Jun 09:49:41 09:53:27 32° 96° (E) 09:57:12 437.432
DOVE 4 25 Jun 09:53:12 09:56:36 24° 291° (WNW) 10:00:06 437.250
CUBEBUG 2 25 Jun 10:02:24 10:06:42 40° 98° (E) 10:11:06 437.445
CANX-2 25 Jun 10:02:45 10:06:59 59° 286° (WNW) 10:11:12 2200.000
AUBIESAT-1 25 Jun 10:02:53 10:05:44 19° 101° (E) 10:08:42 437.475
NOAA 18 25 Jun 10:08:18 10:08:53 10° 305° (NW) 10:09:27 137.9125
ANTELSAT 25 Jun 10:09:23 10:12:16 18° 65° (ENE) 10:15:12 437.575/2403.000
HO-68 25 Jun 10:16:47 10:23:59 77° 289° (WNW) 10:31:10 435.675
COMPASS 1 25 Jun 10:19:36 10:23:49 87° 290° (WNW) 10:28:00 437.405
CUTE 1.7 + AOD 2 25 Jun 10:23:42 10:27:44 40° 288° (WNW) 10:31:43 437.475
DELFI C3 25 Jun 10:34:19 10:37:02 17° 93° (E) 10:39:43 145.870
SEEDS 25 Jun 10:34:46 10:38:46 41° 288° (WNW) 10:42:45 437.485
M-CUBED/EXP-1 PRIME 25 Jun 10:38:02 10:41:48 61° 107° (ESE) 10:45:51 437.505
DANDE 25 Jun 10:41:53 10:49:42 42° 287° (WNW) 10:57:16 436.750
ZACube-1 25 Jun 10:45:37 10:50:03 53° 100° (E) 10:54:32 437.345
PHONESAT 2.4 25 Jun 10:49:03 10:52:06 67° 171° (S) 10:55:11 2401.200-2431.200
HUMSAT D 25 Jun 10:57:35 11:00:17 16° 92° (E) 11:02:59 437.325/437.525
UWE-3 25 Jun 10:57:51 11:02:24 75° 285° (WNW) 11:07:01 435.000/436.395/437.385
CUSAT 1 25 Jun 10:59:13 11:03:47 17° 295° (WNW) 11:08:01 437.405
TIGRISAT 25 Jun 11:00:36 11:04:47 59° 74° (ENE) 11:09:04 435.000
Oscar 11 25 Jun 11:03:10 11:07:34 88° 110° (ESE) 11:11:54 145.826/435.025
UNISAT 6 25 Jun 11:04:21 11:08:36 70° 75° (ENE) 11:12:57 437.425
FUNcube-1 25 Jun 11:05:18 11:09:50 82° 101° (ESE) 11:14:24 145.935
ISS 25 Jun 11:11:19 11:14:34 79° 143° (SE) 11:17:50 145.825
CINEMA 3 25 Jun 11:18:26 11:20:04 12° 297° (WNW) 11:21:44 145.822/145.860
RS-15 25 Jun 11:24:38 11:31:01 17° 96° (E) 11:37:33 29.354- 29.394
AAUSAT CUBESAT 2 25 Jun 11:25:36 11:28:44 21° 293° (WNW) 11:31:50 437.432
AUBIESAT-1 25 Jun 11:36:48 11:40:14 33° 293° (WNW) 11:43:53 437.475
CUBEBUG 2 25 Jun 11:39:41 11:43:04 21° 293° (WNW) 11:46:30 437.445
ANTELSAT 25 Jun 11:44:37 11:48:39 41° 262° (W) 11:52:48 437.575/2403.000
Cosmos 2491 25 Jun 12:00:30 12:07:50 29° 68° (ENE) 12:15:06 435.465 / 435.565
BUGSAT 1 25 Jun 12:05:45 12:08:49 21° 68° (ENE) 12:11:53 437.445
NANOSAT C BR1 25 Jun 12:05:55 12:09:58 52° 73° (ENE) 12:14:02 145.865
HO-68 25 Jun 12:06:38 12:10:32 16° 308° (NW) 12:14:27 435.675
QB50P1 25 Jun 12:06:39 12:10:44 56° 74° (ENE) 12:14:51 145.935-145.965
DELFI C3 25 Jun 12:08:21 12:11:59 34° 289° (WNW) 12:15:36 145.870
POPSAT HIP 1 25 Jun 12:09:28 12:13:34 60° 74° (ENE) 12:17:43 437.405
M-CUBED/EXP-1 PRIME 25 Jun 12:14:43 12:15:59 11° 300° (WNW) 12:17:17 437.505
50 SAT 25 Jun 12:15:05 12:16:01 11° 91° (E) 12:16:57 437.505
PCSat 25 Jun 12:18:58 12:23:53 33° 51° (NE) 12:28:46 145.827
JAS-2 25 Jun 12:19:22 12:25:48 30° 64° (ENE) 12:31:48 435.910
QB50P2 25 Jun 12:20:43 12:24:54 87° 81° (E) 12:29:08 145.880/145.840
ZACube-1 25 Jun 12:23:11 12:25:55 16° 295° (WNW) 12:28:40 437.345
POLYITAN 1 25 Jun 12:23:21 12:27:31 89° 101° (E) 12:31:45 437.675
PHONESAT 2.4 25 Jun 12:25:37 12:28:41 73° 187° (S) 12:31:46 2401.200-2431.200
DUCHIFAT 1 25 Jun 12:28:14 12:32:23 89° 96° (E) 12:36:35 145.980
HUMSAT D 25 Jun 12:32:00 12:36:07 44° 288° (WNW) 12:40:12 437.325/437.525
VELOX 1 25 Jun 12:38:16 12:41:40 22° 94° (E) 12:45:02 145.980
CUBEBUG 1 25 Jun 12:40:00 12:43:33 24° 95° (E) 12:47:04 437.445
TIGRISAT 25 Jun 12:40:23 12:41:54 12° 270° (W) 12:43:25 435.000
FUNcube-1 25 Jun 12:44:21 12:45:24 11° 299° (WNW) 12:46:28 145.935
ISS 25 Jun 12:48:47 12:51:20 21° 341° (NNW) 12:53:54 145.825
O/OREOS (USA 219) 25 Jun 12:49:07 12:50:42 12° 51° (NE) 12:52:18 437.305
ESTCUBE 1 25 Jun 12:58:23 13:02:52 59° 101° (E) 13:07:17 437.505/2401.250
BEESAT 3 25 Jun 13:06:06 13:10:01 56° 55° (NE) 13:13:53 437.485
AISAT 25 Jun 13:17:55 13:22:17 63° 101° (E) 13:26:37 437.250
Gurwin Techsat 1B 25 Jun 13:21:42 13:23:53 13° 58° (ENE) 13:26:05 435.225
RS-15 25 Jun 13:29:53 13:41:11 76° 117° (ESE) 13:53:09 29.354- 29.394
Oscar 19 25 Jun 13:31:29 13:36:03 33° 68° (ENE) 13:40:38 437.125/150
BEESAT 2 25 Jun 13:36:31 13:40:31 66° 56° (ENE) 13:44:27 435.950
UKube-1 25 Jun 13:38:20 13:42:36 62° 101° (E) 13:46:51 .
BUGSAT 1 25 Jun 13:40:32 13:44:03 29° 264° (W) 13:47:34 437.445
YUBILEINY 25 Jun 13:42:54 13:51:11 51° 89° (E) 13:59:32 435.215
NANOSAT C BR1 25 Jun 13:44:09 13:46:00 13° 269° (W) 13:47:52 145.865
QB50P1 25 Jun 13:45:19 13:46:52 12° 270° (W) 13:48:25 145.935-145.965
50 SAT 25 Jun 13:46:24 13:49:59 47° 287° (WNW) 13:53:31 437.505
SPROUT 25 Jun 13:47:03 13:51:15 54° 100° (E) 13:55:26 437.525
TISAT 1 25 Jun 13:47:03 13:49:02 13° 91° (E) 13:51:00 437.305
POPSAT HIP 1 25 Jun 13:48:31 13:49:44 11° 270° (W) 13:50:57 437.405
DX 1 25 Jun 13:51:12 13:55:32 76° 286° (WNW) 13:59:51 434.975-435.025
Cosmos 2491 25 Jun 13:56:41 14:05:14 62° 268° (W) 14:13:45 435.465 / 435.565
PCSat 25 Jun 14:02:21 14:07:17 36° 249° (WSW) 14:12:12 145.827
PHONESAT 2.4 25 Jun 14:02:24 14:05:06 27° 203° (SSW) 14:07:47 2401.200-2431.200
JAS-2 25 Jun 14:02:47 14:10:25 59° 260° (W) 14:17:33 435.910
AO-7 25 Jun 14:04:57 14:08:35 14° 44° (NE) 14:12:15 29.400- 29.500
VELOX 1 25 Jun 14:14:14 14:18:11 33° 290° (WNW) 14:22:08 145.980
CUBEBUG 1 25 Jun 14:16:06 14:19:49 29° 291° (WNW) 14:23:30 437.445
O/OREOS (USA 219) 25 Jun 14:26:14 14:30:44 82° 249° (WSW) 14:35:13 437.305
ISS 25 Jun 14:27:05 14:28:43 13° 1° (N) 14:30:23 145.825
ESTCUBE 1 25 Jun 14:36:47 14:39:09 14° 297° (WNW) 14:41:31 437.505/2401.250
BEESAT 3 25 Jun 14:45:33 14:47:12 12° 251° (WSW) 14:48:52 437.485
AISAT 25 Jun 14:56:13 14:58:14 13° 298° (WNW) 15:00:14 437.250
Gurwin Techsat 1B 25 Jun 14:57:43 15:03:02 90° 91° (E) 15:08:23 435.225
Oscar 19 25 Jun 15:10:53 15:15:21 30° 264° (W) 15:19:50 437.125/150
Cosmos 2504 25 Jun 15:12:28 15:20:13 59° 91° (E) 15:28:35 435.465 / 435.565
UKube-1 25 Jun 15:16:12 15:18:08 13° 298° (WNW) 15:20:03 .
BEESAT 2 25 Jun 15:16:53 15:17:47 11° 252° (WSW) 15:18:40 435.950
TISAT 1 25 Jun 15:20:54 15:24:59 51° 287° (WNW) 15:29:03 437.305
ITAMSAT 1 25 Jun 15:24:30 15:29:37 60° 72° (ENE) 15:34:46 435.822/435.867
SPROUT 25 Jun 15:24:31 15:26:45 14° 296° (WNW) 15:28:58 437.525
AIST 2 25 Jun 15:25:55 15:30:00 53° 54° (NE) 15:34:03 435.215
SWISSCUBE 25 Jun 15:40:27 15:45:06 47° 100° (E) 15:49:42 437.505
YUBILEINY 25 Jun 15:40:29 15:48:14 35° 289° (WNW) 15:56:05 435.215
RS-15 25 Jun 15:44:12 15:54:49 39° 323° (NW) 16:05:58 29.354- 29.394
AO-7 25 Jun 15:51:31 15:59:36 58° 65° (ENE) 16:07:44 29.400- 29.500
ISS 25 Jun 16:03:23 16:06:04 23° 21° (NNE) 16:08:45 145.825
ITUPSAT 1 25 Jun 16:04:41 16:09:31 75° 103° (ESE) 16:14:18 437.325
BEESAT 25 Jun 16:06:04 16:10:53 79° 103° (ESE) 16:15:40 436.000
KKS-1 25 Jun 16:17:48 16:19:18 11° 90° (E) 16:20:48 437.445
SO-50 25 Jun 16:22:00 16:24:06 13° 107° (ESE) 16:26:12 436.795
HORYU 2 25 Jun 16:40:14 16:43:22 19° 65° (ENE) 16:46:31 437.375
Gurwin Techsat 1B 25 Jun 16:42:42 16:43:40 10° 272° (W) 16:44:41 435.225
STARS 25 Jun 16:58:31 17:01:18 16° 93° (E) 17:04:06 437.465
AIST 2 25 Jun 17:05:44 17:08:02 15° 251° (WSW) 17:10:19 435.215
ITAMSAT 1 25 Jun 17:06:15 17:09:29 17° 269° (W) 17:12:44 435.822/435.867
Cosmos 2504 25 Jun 17:07:14 17:14:08 30° 292° (WNW) 17:21:27 435.465 / 435.565
MOZHAYETS 4 25 Jun 17:16:38 17:21:08 48° 99° (E) 17:25:36
SWISSCUBE 25 Jun 17:19:08 17:22:31 19° 296° (WNW) 17:25:54 437.505
ISS 25 Jun 17:39:31 17:42:45 63° 219° (SW) 17:45:58 145.825
CUTE-I 25 Jun 17:41:55 17:44:50 15° 59° (ENE) 17:47:45 437.470
ITUPSAT 1 25 Jun 17:44:30 17:46:43 13° 300° (WNW) 17:48:55 437.325
AO-7 25 Jun 17:45:31 17:52:42 32° 264° (W) 17:59:58 29.400- 29.500
BEESAT 25 Jun 17:46:02 17:48:00 12° 300° (WNW) 17:49:57 436.000
GONETS M04 25 Jun 17:51:21 17:53:07 11° 72° (ENE) 17:54:53
KKS-1 25 Jun 17:51:52 17:56:17 65° 286° (WNW) 18:00:40 437.445
SO-50 25 Jun 17:59:02 18:03:56 79° 303° (WNW) 18:08:51 436.795
RS-15 25 Jun 18:03:17 18:12:09 23° 357° (N) 18:21:13 29.354- 29.394
GOMX 1 25 Jun 18:05:57 18:07:30 12° 63° (ENE) 18:09:02 467.674
LilacSat-2 25 Jun 18:06:47 18:08:53 15° 66° (ENE) 18:11:00 437.200
NOAA 18 25 Jun 18:10:29 18:15:12 31° 65° (ENE) 18:19:55 137.9125
HORYU 2 25 Jun 18:15:28 18:19:37 40° 261° (W) 18:23:50 437.375
NOAA 15 25 Jun 18:19:08 18:24:07 43° 70° (ENE) 18:29:06 137.62
STARS 25 Jun 18:33:41 18:37:53 45° 288° (WNW) 18:42:04 437.465
AIST 1 25 Jun 18:33:44 18:38:05 85° 99° (E) 18:42:25
CUBESAT XI-V 25 Jun 18:34:53 18:39:11 37° 97° (E) 18:43:25 437.345
Cubesat XI-IV 25 Jun 18:43:35 18:48:43 51° 71° (ENE) 18:53:55 437.490
BRITE-PL 25 Jun 18:48:43 18:53:54 73° 76° (ENE) 18:58:43 437.365/2234.400
MOZHAYETS 4 25 Jun 18:54:47 18:57:55 18° 295° (WNW) 19:01:02
HO-68 25 Jun 19:01:04 19:05:08 16° 53° (NE) 19:09:13 435.675
CUTE-I 25 Jun 19:18:51 19:24:11 78° 257° (WSW) 19:29:35 437.470
DOVE 4 25 Jun 19:20:59 19:24:48 30° 70° (ENE) 19:28:29 437.250
LilacSat-2 25 Jun 19:39:19 19:42:51 39° 262° (W) 19:46:26 437.200
GONETS M04 25 Jun 19:39:31 19:48:05 66° 92° (E) 19:56:40
GOMX 1 25 Jun 19:40:21 19:45:06 74° 257° (WSW) 19:49:34 467.674
DANDE 25 Jun 19:42:03 19:46:21 23° 64° (ENE) 19:49:49 436.750
CUTE 1.7 + AOD 2 25 Jun 19:42:28 19:44:31 13° 63° (ENE) 19:46:35 437.475
SO-50 25 Jun 19:42:31 19:45:12 14° 323° (NW) 19:47:53 436.795
NOAA 18 25 Jun 19:50:44 19:55:43 36° 262° (W) 20:00:46 137.9125
CUSAT 1 25 Jun 19:51:01 19:55:03 63° 77° (ENE) 19:58:11 437.405
SEEDS 25 Jun 19:53:01 19:54:47 12° 63° (ENE) 19:56:33 437.485
Cosmos 2499 25 Jun 19:58:38 20:06:34 58° 90° (E) 20:15:04 435.465 / 435.565
NOAA 15 25 Jun 19:59:50 20:04:03 24° 266° (W) 20:08:16 137.62
STRAND 1 25 Jun 20:10:54 20:15:12 26° 95° (E) 20:19:27 437.568
CUBESAT XI-V 25 Jun 20:12:46 20:16:20 22° 294° (WNW) 20:19:52 437.345
RS-15 25 Jun 20:19:04 20:29:56 34° 32° (NNE) 20:40:48 29.354- 29.394
Cubesat XI-IV 25 Jun 20:25:11 20:29:04 20° 267° (W) 20:32:59 437.490
BRITE-PL 25 Jun 20:30:34 20:32:44 13° 269° (W) 20:34:51 437.365/2234.400
AAUSAT CUBESAT 2 25 Jun 20:40:07 20:43:23 22° 68° (ENE) 20:46:40 437.432
CINEMA 3 25 Jun 20:40:49 20:44:55 63° 75° (ENE) 20:49:02 145.822/145.860
HO-68 25 Jun 20:44:36 20:51:45 80° 72° (ENE) 20:58:57 435.675
AUBIESAT-1 25 Jun 20:49:49 20:52:17 20° 63° (ENE) 20:54:45 437.475
CANX-2 25 Jun 20:54:52 20:59:09 87° 257° (WSW) 21:03:28 2200.000
DOVE 4 25 Jun 20:59:01 21:02:31 23° 265° (W) 21:05:55 437.250
CUBEBUG 2 25 Jun 21:00:52 21:04:30 30° 70° (ENE) 21:08:13 437.445
